AEE024 LGRP-LGAV

Flight info

Callsign AEE024
Flight time 0h 53m
Altitude 25000
Route CODIC UL995 VARIX
Aircraft A320/M-SDE3FGHIRWY/LB1

Departure

Time 2026-05-04 20:16
Airport Rhodes International Airport "Diagoras" (LGRP)

Arrival

Time 2026-05-04 21:09
Airport Athens Eleftherios Venizelos International Airport (LGAV)
Time Latitude Longitude Altitude Speed Heading
2026-05-04 19:53 36.40377 28.09186 28 ft 0 kts 160°
2026-05-04 20:08 36.40380 28.09184 28 ft 3 kts 159°
2026-05-04 20:09 36.40405 28.09171 28 ft 4 kts 150°
2026-05-04 20:09 36.40427 28.09152 28 ft 4 kts 128°
2026-05-04 20:09 36.40435 28.09127 28 ft 2 kts 70°
2026-05-04 20:09 36.40433 28.09120 28 ft 0 kts 70°
2026-05-04 20:12 36.40434 28.09123 28 ft 3 kts 70°
2026-05-04 20:12 36.40467 28.09233 28 ft 17 kts 70°
2026-05-04 20:12 36.40530 28.09359 28 ft 18 kts 41°
2026-05-04 20:13 36.40609 28.09487 28 ft 20 kts 70°
2026-05-04 20:13 36.40660 28.09660 28 ft 23 kts 70°
2026-05-04 20:13 36.40717 28.09853 28 ft 25 kts 72°
2026-05-04 20:13 36.40779 28.10065 28 ft 27 kts 70°
2026-05-04 20:14 36.40845 28.10291 28 ft 29 kts 70°
2026-05-04 20:14 36.40916 28.10438 28 ft 17 kts 12°
2026-05-04 20:14 36.40955 28.10428 28 ft 0 kts 334°
2026-05-04 20:15 36.40960 28.10425 28 ft 5 kts 330°
2026-05-04 20:15 36.41019 28.10295 28 ft 23 kts 281°
2026-05-04 20:15 36.40949 28.10014 27 ft 66 kts 250°
2026-05-04 20:15 36.40725 28.09256 31 ft 137 kts 251°
2026-05-04 20:16 36.40343 28.07933 236 ft 182 kts 246°
2026-05-04 20:16 36.39854 28.06463 1025 ft 183 kts 263°
2026-05-04 20:16 36.39688 28.04925 2046 ft 176 kts 271°
2026-05-04 20:16 36.39604 28.03388 2531 ft 187 kts 272°
2026-05-04 20:17 36.39527 28.01682 2795 ft 209 kts 272°
2026-05-04 20:17 36.39429 27.99788 3107 ft 232 kts 271°
2026-05-04 20:17 36.39300 27.97692 3574 ft 254 kts 270°
2026-05-04 20:17 36.39142 27.95464 4361 ft 262 kts 270°
2026-05-04 20:18 36.38967 27.93189 5230 ft 267 kts 270°
2026-05-04 20:18 36.38782 27.90880 6139 ft 270 kts 270°
2026-05-04 20:18 36.38626 27.88548 6997 ft 271 kts 276°
2026-05-04 20:18 36.38862 27.86256 7872 ft 266 kts 290°
2026-05-04 20:19 36.39563 27.84164 8776 ft 261 kts 304°
2026-05-04 20:19 36.40633 27.82353 9669 ft 260 kts 311°
2026-05-04 20:19 36.41773 27.80583 10365 ft 269 kts 310°
2026-05-04 20:19 36.42988 27.78694 10596 ft 291 kts 310°
2026-05-04 20:20 36.44261 27.76708 11058 ft 302 kts 310°
2026-05-04 20:20 36.45578 27.74649 11731 ft 307 kts 310°
2026-05-04 20:20 36.46787 27.72439 12437 ft 312 kts 300°
2026-05-04 20:20 36.47695 27.69963 13160 ft 317 kts 297°
2026-05-04 20:21 36.48586 27.67450 13881 ft 320 kts 297°
2026-05-04 20:21 36.49490 27.64903 14527 ft 323 kts 297°
2026-05-04 20:21 36.51307 27.59760 15799 ft 328 kts 297°
2026-05-04 20:22 36.52227 27.57150 16430 ft 331 kts 297°
2026-05-04 20:22 36.53154 27.54524 17055 ft 333 kts 298°
2026-05-04 20:22 36.54088 27.51879 17702 ft 336 kts 298°
2026-05-04 20:22 36.55032 27.49212 18323 ft 338 kts 298°
2026-05-04 20:23 36.55988 27.46517 18877 ft 341 kts 298°
2026-05-04 20:23 36.56940 27.43829 19403 ft 345 kts 298°
2026-05-04 20:23 36.57909 27.41084 19933 ft 349 kts 298°
2026-05-04 20:23 36.58889 27.38302 20468 ft 353 kts 298°
2026-05-04 20:24 36.59882 27.35486 20973 ft 357 kts 298°
2026-05-04 20:24 36.60887 27.32632 21475 ft 361 kts 298°
2026-05-04 20:24 36.61897 27.29756 21960 ft 365 kts 298°
2026-05-04 20:24 36.62921 27.26838 22459 ft 369 kts 298°
2026-05-04 20:25 36.63955 27.23891 22960 ft 373 kts 297°
2026-05-04 20:25 36.64999 27.20912 23461 ft 377 kts 297°
2026-05-04 20:25 36.66047 27.17906 23887 ft 381 kts 297°
2026-05-04 20:25 36.66751 27.15886 24171 ft 383 kts 297°
2026-05-04 20:26 36.67823 27.12818 24582 ft 387 kts 297°
2026-05-04 20:26 36.69247 27.08730 25006 ft 391 kts 297°
2026-05-04 20:26 36.70324 27.05635 25069 ft 383 kts 297°
2026-05-04 20:26 36.71369 27.02624 25083 ft 376 kts 297°
2026-05-04 20:27 36.72400 26.99647 25083 ft 374 kts 297°
2026-05-04 20:27 36.73425 26.96678 25084 ft 373 kts 297°
2026-05-04 20:27 36.74105 26.94710 25084 ft 373 kts 297°
2026-05-04 20:27 36.75134 26.91740 25085 ft 373 kts 297°
2026-05-04 20:28 36.76166 26.88767 25084 ft 373 kts 297°
2026-05-04 20:28 36.77198 26.85799 25082 ft 373 kts 297°
2026-05-04 20:28 36.78563 26.81856 25086 ft 374 kts 297°
2026-05-04 20:28 36.79257 26.79846 25084 ft 374 kts 297°
2026-05-04 20:29 36.80284 26.76865 25086 ft 374 kts 297°
2026-05-04 20:29 36.81297 26.73920 25087 ft 374 kts 297°
2026-05-04 20:29 36.82320 26.70938 25092 ft 374 kts 297°
2026-05-04 20:29 36.83345 26.67956 25089 ft 374 kts 297°
2026-05-04 20:30 36.84375 26.64962 25093 ft 375 kts 297°
2026-05-04 20:30 36.85401 26.61976 25097 ft 375 kts 297°
2026-05-04 20:30 36.86430 26.58979 25096 ft 375 kts 297°
2026-05-04 20:30 36.87455 26.55990 25099 ft 375 kts 297°
2026-05-04 20:31 36.88481 26.52990 25095 ft 375 kts 297°
2026-05-04 20:31 36.89505 26.49988 25107 ft 375 kts 297°
2026-05-04 20:31 36.90525 26.46988 25105 ft 376 kts 297°
2026-05-04 20:31 36.91547 26.43988 25104 ft 376 kts 297°
2026-05-04 20:32 36.92569 26.40982 25104 ft 376 kts 297°
2026-05-04 20:32 36.93592 26.37974 25111 ft 376 kts 297°
2026-05-04 20:32 36.94611 26.34968 25110 ft 376 kts 297°
2026-05-04 20:32 36.95629 26.31965 25108 ft 376 kts 297°
2026-05-04 20:33 36.96548 26.29246 25102 ft 376 kts 297°
2026-05-04 20:33 36.97552 26.26269 25101 ft 376 kts 297°
2026-05-04 20:33 36.98571 26.23260 25107 ft 376 kts 297°
2026-05-04 20:33 36.99579 26.20289 25107 ft 376 kts 297°
2026-05-04 20:34 37.00603 26.17277 25107 ft 377 kts 297°
2026-05-04 20:34 37.01628 26.14260 25102 ft 377 kts 297°
2026-05-04 20:34 37.02653 26.11239 25109 ft 377 kts 297°
2026-05-04 20:34 37.03676 26.08220 25102 ft 377 kts 297°
2026-05-04 20:35 37.04700 26.05194 25105 ft 377 kts 297°
2026-05-04 20:35 37.05725 26.02168 25106 ft 378 kts 297°
2026-05-04 20:35 37.06749 25.99137 25107 ft 378 kts 297°
2026-05-04 20:35 37.07767 25.96111 25109 ft 378 kts 297°
2026-05-04 20:36 37.08790 25.93074 25108 ft 378 kts 297°
2026-05-04 20:36 37.09815 25.90038 25112 ft 378 kts 297°
2026-05-04 20:36 37.10808 25.87090 25112 ft 378 kts 297°
2026-05-04 20:36 37.11829 25.84045 25114 ft 379 kts 297°
2026-05-04 20:37 37.12849 25.80998 25114 ft 379 kts 297°
2026-05-04 20:37 37.13868 25.77956 25115 ft 379 kts 297°
2026-05-04 20:37 37.14890 25.74909 25118 ft 379 kts 297°
2026-05-04 20:37 37.15896 25.71901 25118 ft 379 kts 296°
2026-05-04 20:38 37.16911 25.68850 25117 ft 379 kts 296°
2026-05-04 20:38 37.17927 25.65793 25117 ft 380 kts 296°
2026-05-04 20:38 37.18943 25.62741 25118 ft 380 kts 296°
2026-05-04 20:38 37.19963 25.59687 25118 ft 380 kts 296°
2026-05-04 20:39 37.20982 25.56633 25122 ft 380 kts 296°
2026-05-04 20:39 37.22001 25.53574 25123 ft 380 kts 296°
2026-05-04 20:39 37.23018 25.50511 25127 ft 380 kts 296°
2026-05-04 20:39 37.24020 25.47438 25126 ft 381 kts 295°
2026-05-04 20:40 37.25011 25.44354 25129 ft 381 kts 295°
2026-05-04 20:40 37.25996 25.41272 25130 ft 381 kts 295°
2026-05-04 20:40 37.26986 25.38179 25130 ft 381 kts 295°
2026-05-04 20:40 37.27962 25.35085 25133 ft 381 kts 294°
2026-05-04 20:41 37.28863 25.31952 25136 ft 382 kts 292°
2026-05-04 20:41 37.29708 25.28786 25134 ft 383 kts 291°
2026-05-04 20:41 37.30530 25.25600 25133 ft 383 kts 291°
2026-05-04 20:41 37.31338 25.22456 25134 ft 383 kts 291°
2026-05-04 20:42 37.32164 25.19276 25132 ft 383 kts 291°
2026-05-04 20:42 37.33001 25.16098 25135 ft 383 kts 291°
2026-05-04 20:42 37.33838 25.12944 24928 ft 378 kts 291°
2026-05-04 20:42 37.34665 25.09841 24694 ft 372 kts 291°
2026-05-04 20:43 37.35482 25.06779 24453 ft 366 kts 291°
2026-05-04 20:43 37.36285 25.03770 24220 ft 362 kts 292°
2026-05-04 20:43 37.37082 25.00787 23999 ft 359 kts 292°
2026-05-04 20:43 37.37878 24.97811 23766 ft 358 kts 292°
2026-05-04 20:44 37.38669 24.94847 23496 ft 357 kts 292°
2026-05-04 20:44 37.39458 24.91895 23223 ft 355 kts 291°
2026-05-04 20:44 37.40242 24.88956 22949 ft 353 kts 291°
2026-05-04 20:44 37.41018 24.86029 22678 ft 352 kts 291°
2026-05-04 20:45 37.41787 24.83118 22398 ft 351 kts 291°
2026-05-04 20:45 37.42552 24.80213 22141 ft 349 kts 291°
2026-05-04 20:45 37.43312 24.77319 21878 ft 348 kts 291°
2026-05-04 20:45 37.44061 24.74470 21623 ft 346 kts 291°
2026-05-04 20:46 37.44818 24.71598 21366 ft 345 kts 291°
2026-05-04 20:46 37.45569 24.68743 21110 ft 343 kts 291°
2026-05-04 20:46 37.46319 24.65896 20856 ft 342 kts 291°
2026-05-04 20:46 37.47065 24.63064 20609 ft 341 kts 291°
2026-05-04 20:47 37.47806 24.60241 20358 ft 339 kts 291°
2026-05-04 20:47 37.48546 24.57421 20110 ft 338 kts 291°
2026-05-04 20:47 37.49280 24.54613 19863 ft 337 kts 291°
2026-05-04 20:47 37.50009 24.51818 19623 ft 336 kts 291°
2026-05-04 20:48 37.50734 24.49032 19356 ft 332 kts 291°
2026-05-04 20:48 37.51452 24.46272 18961 ft 332 kts 291°
2026-05-04 20:48 37.52172 24.43505 18546 ft 333 kts 291°
2026-05-04 20:48 37.52891 24.40738 18091 ft 333 kts 291°
2026-05-04 20:49 37.53611 24.37966 17664 ft 332 kts 291°
2026-05-04 20:49 37.54329 24.35207 17251 ft 330 kts 291°
2026-05-04 20:49 37.55045 24.32463 16843 ft 329 kts 291°
2026-05-04 20:49 37.55572 24.29651 16422 ft 332 kts 279°
2026-05-04 20:50 37.55592 24.26739 16007 ft 334 kts 269°
2026-05-04 20:50 37.55454 24.23818 15586 ft 334 kts 269°
2026-05-04 20:50 37.55316 24.20891 15168 ft 333 kts 269°
2026-05-04 20:50 37.55182 24.18018 14759 ft 333 kts 269°
2026-05-04 20:51 37.55047 24.15072 14338 ft 332 kts 269°
2026-05-04 20:51 37.54916 24.12206 13927 ft 332 kts 269°
2026-05-04 20:51 37.54830 24.09313 13594 ft 326 kts 276°
2026-05-04 20:51 37.55288 24.06607 13514 ft 308 kts 295°
2026-05-04 20:52 37.56349 24.04355 13443 ft 292 kts 313°
2026-05-04 20:52 37.57840 24.02720 13375 ft 278 kts 330°
2026-05-04 20:52 37.59570 24.01769 13315 ft 268 kts 347°
2026-05-04 20:52 37.61429 24.01496 13249 ft 270 kts
2026-05-04 20:53 37.63275 24.01912 13190 ft 271 kts 18°
2026-05-04 20:53 37.64954 24.02979 13136 ft 272 kts 34°
2026-05-04 20:53 37.66329 24.04629 13068 ft 275 kts 50°
2026-05-04 20:53 37.67269 24.06743 13006 ft 279 kts 67°
2026-05-04 20:54 37.67677 24.09147 12942 ft 284 kts 84°
2026-05-04 20:54 37.67488 24.11645 12877 ft 289 kts 102°
2026-05-04 20:54 37.66688 24.13984 12808 ft 294 kts 120°
2026-05-04 20:54 37.65323 24.15921 12739 ft 299 kts 140°
2026-05-04 20:55 37.63520 24.17230 12669 ft 301 kts 159°
2026-05-04 20:55 37.61493 24.17748 12599 ft 302 kts 179°
2026-05-04 20:55 37.59421 24.17425 12529 ft 301 kts 199°
2026-05-04 20:55 37.57546 24.16298 12458 ft 297 kts 218°
2026-05-04 20:56 37.56079 24.14512 12389 ft 292 kts 237°
2026-05-04 20:56 37.55145 24.12272 12328 ft 287 kts 256°
2026-05-04 20:56 37.54812 24.09832 12261 ft 282 kts 271°
2026-05-04 20:56 37.54703 24.07367 12198 ft 282 kts 270°
2026-05-04 20:57 37.54591 24.04901 12134 ft 282 kts 270°
2026-05-04 20:57 37.54475 24.02441 12071 ft 281 kts 270°
2026-05-04 20:57 37.54354 23.99975 11978 ft 282 kts 270°
2026-05-04 20:57 37.54480 23.97510 11317 ft 288 kts 289°
2026-05-04 20:58 37.55152 23.95116 10651 ft 289 kts 294°
2026-05-04 20:58 37.55846 23.92765 10104 ft 284 kts 294°
2026-05-04 20:58 37.56529 23.90442 9477 ft 281 kts 294°
2026-05-04 20:58 37.57206 23.88137 8835 ft 280 kts 294°
2026-05-04 20:59 37.57878 23.85841 8194 ft 278 kts 294°
2026-05-04 20:59 37.58546 23.83554 7573 ft 277 kts 294°
2026-05-04 20:59 37.59209 23.81278 6973 ft 276 kts 294°
2026-05-04 20:59 37.59869 23.79011 6456 ft 272 kts 294°
2026-05-04 21:00 37.60531 23.76858 6065 ft 260 kts 302°
2026-05-04 21:00 37.61565 23.75086 5725 ft 244 kts 321°
2026-05-04 21:00 37.62911 23.73921 5408 ft 229 kts 339°
2026-05-04 21:00 37.64387 23.73369 5110 ft 216 kts 355°
2026-05-04 21:01 37.65851 23.73243 4830 ft 208 kts 358°
2026-05-04 21:01 37.67286 23.73133 4539 ft 205 kts 358°
2026-05-04 21:01 37.68673 23.73023 4423 ft 193 kts 357°
2026-05-04 21:01 37.69954 23.72919 4394 ft 176 kts 357°
2026-05-04 21:02 37.71131 23.72932 4297 ft 162 kts
2026-05-04 21:02 37.72168 23.73305 4214 ft 149 kts 26°
2026-05-04 21:02 37.73030 23.73938 4158 ft 140 kts 30°
2026-05-04 21:02 37.73837 23.74619 4104 ft 139 kts 32°
2026-05-04 21:03 37.74623 23.75322 4043 ft 139 kts 33°
2026-05-04 21:03 37.75405 23.76041 3983 ft 139 kts 33°
2026-05-04 21:03 37.76183 23.76767 3916 ft 139 kts 34°
2026-05-04 21:03 37.76950 23.77488 3887 ft 137 kts 34°
2026-05-04 21:04 37.77711 23.78205 3814 ft 137 kts 34°
2026-05-04 21:04 37.78473 23.78924 3678 ft 136 kts 34°
2026-05-04 21:04 37.79228 23.79638 3516 ft 135 kts 34°
2026-05-04 21:04 37.79980 23.80348 3347 ft 135 kts 34°
2026-05-04 21:05 37.80735 23.81063 3177 ft 135 kts 34°
2026-05-04 21:05 37.81492 23.81779 2993 ft 136 kts 34°
2026-05-04 21:05 37.82241 23.82489 2816 ft 136 kts 34°
2026-05-04 21:05 37.83001 23.83207 2632 ft 137 kts 34°
2026-05-04 21:06 37.83766 23.83932 2447 ft 138 kts 34°
2026-05-04 21:06 37.84537 23.84663 2260 ft 139 kts 34°
2026-05-04 21:06 37.85309 23.85395 2072 ft 139 kts 34°
2026-05-04 21:06 37.86084 23.86129 1886 ft 140 kts 35°
2026-05-04 21:07 37.86862 23.86867 1695 ft 140 kts 34°
2026-05-04 21:07 37.87639 23.87604 1509 ft 140 kts 35°
2026-05-04 21:07 37.88419 23.88344 1316 ft 140 kts 36°
2026-05-04 21:07 37.89197 23.89082 1107 ft 140 kts 36°
2026-05-04 21:08 37.89974 23.89824 911 ft 140 kts 36°
2026-05-04 21:08 37.90759 23.90556 756 ft 140 kts 35°
2026-05-04 21:08 37.91523 23.91299 571 ft 140 kts 37°
2026-05-04 21:08 37.92312 23.92047 387 ft 140 kts 36°
2026-05-04 21:09 37.93067 23.92757 293 ft 125 kts 35°
2026-05-04 21:09 37.93599 23.93261 292 ft 59 kts 39°
2026-05-04 21:09 37.93822 23.93484 293 ft 33 kts 42°
2026-05-04 21:09 37.93940 23.93724 297 ft 28 kts 67°
2026-05-04 21:10 37.93949 23.93752 298 ft 0 kts 67°
2026-05-04 21:10 37.93946 23.93786 298 ft 15 kts 107°
2026-05-04 21:11 37.93851 23.93787 302 ft 17 kts 218°
2026-05-04 21:11 37.93748 23.93690 300 ft 20 kts 215°
2026-05-04 21:11 37.93675 23.93619 299 ft 12 kts 224°
2026-05-04 21:11 37.93597 23.93545 302 ft 16 kts 216°
2026-05-04 21:12 37.93502 23.93457 302 ft 19 kts 215°
2026-05-04 21:12 37.93410 23.93473 302 ft 16 kts 128°
2026-05-04 21:12 37.93339 23.93594 303 ft 19 kts 127°
2026-05-04 21:12 37.93255 23.93735 301 ft 21 kts 127°
2026-05-04 21:13 37.93159 23.93895 301 ft 24 kts 128°
2026-05-04 21:13 37.93109 23.94063 301 ft 21 kts 51°
2026-05-04 21:13 37.93231 23.94181 303 ft 24 kts 36°
2026-05-04 21:13 37.93279 23.94293 303 ft 14 kts 112°
2026-05-04 21:14 37.93214 23.94404 302 ft 17 kts 127°
2026-05-04 21:14 37.93163 23.94538 301 ft 14 kts 73°
2026-05-04 21:14 37.93243 23.94618 303 ft 18 kts 36°
2026-05-04 21:14 37.93349 23.94721 303 ft 21 kts 37°
2026-05-04 21:15 37.93473 23.94839 301 ft 24 kts 36°
2026-05-04 21:15 37.93554 23.94917 301 ft 9 kts 38°
2026-05-04 21:15 37.93601 23.94952 301 ft 2 kts
2026-05-04 21:15 37.93619 23.94939 302 ft 4 kts 313°
2026-05-04 21:16 37.93642 23.94901 302 ft 7 kts 306°
2026-05-04 21:16 37.93651 23.94885 301 ft 2 kts 306°
2026-05-04 21:16 37.93652 23.94884 302 ft 0 kts 306°